GEFSGL_500_meanwind_066.txt.gz
Wind_Speed
24 24 23 23 22 21 20 19 18 17 15 14 13 13 14 16 19 22 26 29 32 35 38 40 42 44 46 48 48 48 49 48 45 44 43 44 44 43 42 42 40 40 39
24 24 24 24 23 22 22 20 20 18 17 15 14 14 14 15 17 20 22 26 29 32 35 37 39 42 44 46 48 49 49 49 47 46 44 44 43 42 42 42 41 39 39
24 25 25 25 24 24 23 22 21 21 19 18 16 16 15 16 17 18 20 23 26 30 32 35 37 39 42 44 46 47 47 47 47 47 46 45 43 43 42 41 41 41 39
24 25 25 25 25 25 24 24 23 22 21 20 19 18 17 16 15 16 18 20 23 27 29 32 35 37 39 41 43 46 46 45 44 44 46 47 45 45 44 42 41 41 40
24 24 25 25 25 26 25 25 24 24 23 22 21 20 18 16 15 14 15 17 20 23 26 29 31 34 36 38 40 42 45 45 44 43 44 46 46 45 45 43 41 41 40
24 25 25 25 25 26 26 26 25 25 25 24 23 21 19 17 15 13 13 14 16 19 22 25 28 31 33 35 36 38 40 42 42 42 42 42 44 45 43 43 42 42 41
24 24 25 25 26 26 27 27 27 26 26 26 24 23 21 18 16 14 12 12 13 15 18 21 23 27 30 32 34 36 37 37 38 39 40 40 41 42 42 42 41 41 40
23 24 25 25 26 26 27 28 28 28 27 27 25 24 22 20 18 15 12 10 11 13 15 17 20 23 27 30 31 33 35 34 34 36 36 36 38 39 41 40 39 39 39
23 24 25 25 25 26 27 28 29 29 28 28 27 25 23 21 20 17 14 11 10 10 12 14 17 20 23 25 28 30 32 33 32 33 33 33 34 36 37 39 38 38 38
23 24 24 25 25 26 27 27 28 29 29 28 27 26 24 22 20 18 15 12 9 8 9 11 13 16 19 21 23 26 29 30 30 31 32 32 33 35 36 37 37 37 37
23 23 24 25 25 26 26 27 27 28 28 28 27 27 25 24 22 20 16 13 10 7 5 7 10 12 15 18 20 22 24 27 29 29 29 31 32 35 36 36 35 35 34
23 24 24 25 25 25 26 26 26 26 27 27 27 27 26 25 23 21 18 15 11 7 4 4 6 8 11 14 17 19 20 22 24 26 27 29 30 30 31 32 32 32 31
24 24 24 25 25 25 25 25 26 26 25 26 26 26 25 25 23 22 19 16 13 9 6 3 3 5 7 9 12 15 17 20 22 22 23 24 25 26 27 28 29 29 29
25 25 25 25 25 25 25 25 25 25 25 24 24 24 24 24 23 22 20 16 13 10 7 5 3 1 4 7 9 12 15 16 19 21 21 22 24 24 24 25 26 26 27
26 26 25 25 25 25 24 24 24 24 24 24 23 23 22 22 22 21 19 17 13 11 8 5 3 1 3 5 8 10 13 15 17 19 20 20 21 22 22 22 24 25 25
27 27 26 26 25 25 24 24 24 24 23 23 22 22 21 20 20 19 18 16 13 11 8 6 3 1 2 4 6 9 11 13 15 17 18 19 20 22 22 22 22 23 23
28 28 28 27 27 26 25 25 24 24 23 22 22 21 20 19 18 18 17 15 12 10 7 5 3 1 2 4 6 7 9 11 13 15 16 18 19 20 20 21 21 21 21
30 30 30 29 29 28 27 26 25 24 24 23 22 21 20 19 17 16 15 14 12 9 7 5 4 3 3 4 6 7 9 11 13 14 15 16 17 18 19 19 19 20 20
32 32 31 31 30 30 29 28 27 26 25 24 23 22 21 19 18 16 15 14 12 10 8 6 5 4 5 6 7 8 10 11 13 14 14 15 16 17 18 18 19 20 20
33 33 33 32 32 32 31 31 30 29 28 27 26 24 23 22 20 18 16 15 13 11 10 8 7 6 7 7 7 9 10 12 13 14 15 16 16 17 18 18 19 19 20
34 34 34 34 33 33 33 33 33 32 31 30 29 28 26 25 23 21 19 18 16 14 13 11 10 10 9 10 10 10 11 13 14 15 16 16 17 17 18 19 19 19 20
35 35 35 35 35 35 36 36 36 35 35 34 33 32 30 28 27 26 24 22 20 18 17 15 14 14 13 13 14 13 14 15 15 16 17 17 18 18 19 19 19 20 20
36 36 37 37 37 37 38 38 38 38 38 38 37 36 34 33 31 30 29 27 25 23 22 20 19 18 18 18 17 17 17 17 18 18 18 19 19 20 20 20 20 20 20
39 39 40 40 40 40 40 40 41 41 42 42 42 41 40 38 37 35 34 32 30 29 27 25 24 24 23 22 22 21 21 21 21 21 21 21 22 22 22 22 22 21 21
42 42 42 42 42 42 42 43 43 44 45 45 46 46 45 44 43 41 39 38 36 34 33 31 30 28 28 27 26 25 25 25 24 24 24 24 24 24 24 24 24 24 23
44 44 44 45 45 45 46 46 47 47 48 49 49 50 50 50 49 48 46 44 42 40 39 37 36 34 33 32 31 30 30 29 29 28 28 27 27 27 27 27 27 27 26

GEFSGL_500_meanwind_072.txt.gz
Wind_Speed
23 24 24 24 25 25 25 25 24 23 20 18 18 17 17 16 16 17 19 21 23 26 28 30 32 34 36 37 39 41 42 43 42 41 42 42 43 41 41 42 43 42 40
22 23 24 24 24 24 25 25 25 24 23 21 20 19 18 17 17 16 17 19 20 23 25 27 29 32 34 36 38 40 41 42 43 42 43 43 43 43 42 43 43 43 42
22 23 23 24 24 24 25 25 25 25 24 24 23 21 20 19 18 17 16 17 18 20 22 24 26 29 31 34 36 38 39 41 42 43 43 44 43 44 43 43 43 42 42
22 23 23 24 24 24 24 25 25 25 25 25 24 23 22 21 19 18 16 16 17 18 19 21 23 26 29 31 33 35 37 39 41 42 43 44 44 44 44 44 44 44 43
22 23 23 24 24 25 25 25 25 25 25 25 25 25 24 23 21 19 17 16 16 16 17 19 21 24 26 29 31 33 35 37 39 40 41 42 43 45 45 45 46 46 46
22 23 23 24 25 25 25 26 26 26 26 26 26 26 25 24 22 20 18 16 15 14 15 16 18 21 24 26 28 31 33 35 36 37 39 40 41 43 44 45 45 46 45
22 23 24 24 25 25 25 25 26 26 26 26 26 26 26 25 24 21 19 17 15 13 12 14 16 18 21 23 26 29 31 33 34 35 37 38 39 41 42 43 44 44 43
23 23 24 24 25 25 25 25 26 26 26 26 26 27 27 26 25 23 21 18 16 14 12 13 14 15 18 20 23 25 27 29 31 33 35 36 37 38 39 40 40 41 42
23 23 24 24 25 25 26 26 25 26 26 26 26 26 26 26 25 24 22 20 17 16 14 13 12 13 14 16 19 22 25 27 30 31 33 34 35 36 37 39 38 38 38
24 24 25 25 25 26 26 26 25 25 26 26 26 26 26 26 25 24 23 21 19 17 15 13 12 11 12 13 15 18 20 23 26 28 30 32 33 33 34 36 36 36 37
25 25 26 26 26 26 26 27 26 26 25 25 26 25 25 25 25 25 23 22 20 19 16 14 13 11 11 11 12 14 17 19 22 24 27 29 31 32 33 33 33 33 34
26 27 27 27 27 27 27 27 27 26 26 26 25 25 25 25 25 25 24 23 21 19 18 16 14 12 11 11 11 11 13 15 18 20 23 26 28 29 30 32 33 33 33
28 28 28 28 28 28 27 27 27 27 26 26 25 25 24 24 24 24 24 23 21 20 18 16 14 12 11 11 10 10 10 11 14 16 18 21 24 25 27 29 31 33 34
30 30 30 29 29 29 28 28 28 27 26 26 25 25 24 24 23 23 23 22 21 20 19 17 15 13 12 11 10 9 8 9 11 13 16 18 20 22 23 26 27 29 31
32 32 32 31 31 30 29 29 29 28 28 27 26 25 24 24 23 23 22 22 21 20 18 17 15 14 12 11 10 9 7 7 9 11 13 16 18 20 22 23 26 28 30
34 33 33 32 31 31 30 29 29 28 28 28 27 26 25 24 24 23 23 22 21 20 19 18 16 14 13 11 10 9 8 8 8 9 11 13 15 18 20 22 23 25 26
34 34 33 32 31 30 30 29 28 28 28 28 28 28 26 25 25 24 23 22 21 20 19 18 16 15 14 12 11 10 9 9 9 10 11 12 13 16 18 20 21 22 23
35 34 33 32 31 31 30 30 29 29 28 28 28 29 28 27 26 25 24 23 22 21 20 19 18 16 15 13 12 11 10 10 10 10 11 11 13 15 16 18 20 20 21
35 34 32 32 31 30 30 30 30 30 29 29 29 29 29 29 28 28 26 25 24 23 22 21 20 18 17 15 14 13 12 12 11 11 12 11 12 13 15 16 18 19 20
35 33 32 31 30 30 30 30 30 30 30 30 31 31 30 30 30 30 29 28 27 26 25 23 22 21 19 18 17 15 14 14 13 13 14 14 14 14 14 15 17 18 19
34 33 32 32 31 31 31 31 32 32 32 32 32 33 32 32 32 32 31 31 30 30 29 27 26 24 23 22 20 19 18 17 16 15 15 15 16 16 17 16 17 18 19
34 33 33 33 33 33 33 33 34 34 34 34 33 34 34 34 34 34 34 34 33 33 33 32 30 29 28 26 25 23 22 21 21 20 20 19 19 19 19 20 20 20 21
35 34 34 34 34 34 34 35 35 35 35 35 36 36 36 36 37 37 37 37 37 37 37 37 36 35 33 32 30 29 27 26 26 25 24 24 23 23 23 23 23 24 24
35 35 35 35 35 36 36 36 37 37 38 38 38 39 39 39 40 40 40 41 41 41 41 41 41 40 40 39 36 34 33 32 31 30 29 28 28 27 27 26 26 27 27
36 37 37 37 38 38 38 39 39 40 40 41 41 42 43 43 44 44 44 45 45 45 45 45 46 45 45 44 44 42 40 38 37 36 34 33 32 32 31 30 30 30 30
38 39 39 39 40 40 41 42 42 43 44 45 46 46 47 48 48 48 49 49 49 49 50 50 50 50 50 50 49 49 47 45 43 42 40 39 38 37 35 34 34 33 33

GEFSGL_500_meanwind_078.txt.gz
Wind_Speed
20 20 21 22 22 22 22 22 22 22 21 20 19 18 18 16 15 14 13 12 13 15 18 21 24 27 29 32 34 36 39 41 42 43 45 45 45 46 46 46 47 45 44
20 21 21 22 22 22 22 22 22 22 21 20 20 19 19 18 17 16 14 13 12 13 15 18 21 24 27 30 32 34 38 40 41 43 45 46 47 46 47 47 46 47 47
20 21 21 22 22 23 22 22 22 21 21 21 20 20 20 20 19 18 16 15 13 13 14 16 18 21 24 27 30 33 35 38 40 42 45 46 47 47 47 47 47 47 46
20 21 22 22 22 22 22 22 22 21 21 21 21 21 21 20 20 19 17 16 14 13 13 14 16 19 21 24 28 31 33 35 37 39 42 45 46 47 47 47 47 47 46
20 21 21 22 22 22 22 22 22 22 21 21 21 21 21 21 21 20 19 17 15 14 14 13 14 16 18 20 23 27 30 32 34 36 39 42 44 44 45 46 47 46 46
20 21 21 22 22 22 22 22 22 22 21 21 21 21 22 22 21 20 19 18 17 15 14 14 13 13 15 17 20 22 26 29 32 33 36 39 41 43 44 45 47 47 46
21 21 22 22 22 22 23 23 22 22 21 21 21 21 21 21 21 20 20 18 17 16 15 14 13 13 13 14 16 19 22 25 28 30 33 35 38 41 43 44 45 47 46
21 22 22 23 23 23 23 23 23 22 22 21 21 21 21 21 21 20 20 18 17 17 15 14 13 13 13 13 14 16 19 22 24 27 29 32 35 38 40 43 43 45 46
22 22 23 23 24 24 24 24 24 23 22 22 21 21 21 21 21 20 20 19 18 17 16 15 14 14 13 12 12 14 16 20 22 24 27 29 32 34 36 38 40 41 43
22 23 23 24 25 25 25 25 24 24 23 23 22 22 22 21 21 20 20 19 19 18 17 16 15 14 14 12 12 12 13 16 19 22 24 26 28 31 33 34 36 38 40
23 24 25 26 26 26 26 25 25 25 24 24 23 23 22 22 21 20 20 19 19 19 19 17 16 15 13 12 11 11 12 13 16 18 21 23 25 27 30 32 33 35 36
25 26 27 27 28 28 27 27 26 26 25 24 24 23 23 22 21 21 20 20 19 19 19 18 16 15 14 13 12 11 11 12 13 16 19 21 23 25 27 29 32 34 35
27 28 29 29 29 29 28 28 27 27 25 24 24 23 23 22 22 21 20 20 19 19 19 18 17 16 15 14 13 12 12 12 12 14 16 18 21 23 25 27 30 32 34
28 29 30 31 30 30 29 28 28 27 26 25 24 23 23 22 21 21 20 20 20 19 19 19 18 17 16 15 14 13 13 12 12 13 14 16 18 20 22 25 27 30 32
30 31 32 32 31 31 30 30 29 28 27 25 25 24 22 22 21 21 20 20 20 20 20 20 19 18 17 16 15 15 14 13 13 13 13 14 16 18 20 22 25 27 29
32 33 33 33 32 32 31 31 30 28 27 26 25 24 23 22 22 21 21 21 21 21 20 20 20 19 18 18 17 16 15 15 15 15 15 15 16 17 18 20 23 25 27
34 34 34 34 33 33 32 30 29 29 28 27 26 25 24 24 23 23 23 23 22 22 22 21 21 20 20 19 19 18 18 17 17 17 17 17 17 18 19 19 21 23 25
35 35 35 34 34 33 32 30 29 28 29 28 28 27 26 25 25 25 24 24 24 23 23 23 23 22 22 21 21 20 20 19 19 19 19 19 19 20 20 20 21 22 23
37 37 36 36 35 34 33 31 30 29 29 28 29 28 28 28 27 27 26 26 26 25 25 25 25 25 24 24 23 23 23 22 22 21 21 21 20 21 21 21 21 21 22
38 38 37 37 36 34 33 32 31 30 30 29 28 28 29 29 28 28 28 28 28 28 28 28 28 28 27 27 27 27 26 26 25 25 24 23 23 22 22 23 23 23 23
40 39 38 37 36 35 34 32 31 31 30 30 29 29 29 29 30 30 30 30 30 30 30 31 31 31 31 30 30 30 30 30 29 29 28 27 26 25 25 25 25 25 25
41 40 39 38 37 35 34 33 32 31 31 31 31 31 31 31 32 32 33 33 33 33 33 34 34 34 34 34 35 35 35 34 34 33 33 32 31 30 29 28 28 27 27
43 41 40 39 37 36 35 34 33 32 32 33 33 33 33 34 34 35 35 35 36 37 37 38 38 39 39 39 39 39 39 39 39 38 38 37 36 35 35 34 33 32 31
43 42 41 40 38 37 36 35 34 34 34 34 35 35 36 36 37 38 38 39 40 41 42 43 43 43 44 44 44 44 44 44 44 44 43 43 42 41 40 39 38 37 36
44 43 41 40 38 37 36 36 36 36 36 37 37 38 38 39 40 41 42 43 44 45 46 47 47 48 48 49 49 49 49 49 49 49 48 48 47 47 46 45 44 42 41
44 43 41 40 38 37 37 37 37 38 38 39 40 40 41 43 44 45 46 47 48 49 50 50 51 52 52 53 54 54 54 54 54 54 53 53 52 52 51 50 49 48 47

GEFSGL_500_meanwind_084.txt.gz
Wind_Speed
17 18 19 19 20 20 20 20 20 20 19 19 19 18 17 15 13 12 11 10 9 9 10 11 13 16 18 22 24 27 30 31 33 36 39 40 42 43 44 44 44 45 44
17 18 18 19 20 20 20 20 19 19 19 19 18 18 17 16 15 13 13 12 11 10 10 10 11 13 15 18 21 24 27 29 32 36 39 40 43 44 44 44 45 45 46
17 17 18 19 19 19 20 20 20 19 19 19 18 18 17 16 16 15 14 13 12 11 10 10 11 12 14 16 18 21 24 27 30 34 37 40 42 44 45 45 45 45 46
17 17 18 19 19 19 19 20 20 20 19 19 18 18 17 17 17 16 15 14 13 12 11 10 10 11 13 15 16 19 21 24 26 30 34 38 41 43 45 46 46 47 47
17 17 18 18 19 19 19 20 20 20 20 19 19 18 18 17 17 17 16 15 14 13 12 11 11 11 12 14 15 17 19 21 23 26 30 34 38 41 43 45 47 47 48
16 17 18 18 19 19 19 20 20 21 21 20 19 18 18 18 17 17 17 16 15 14 13 13 12 12 12 13 13 15 17 18 20 22 25 29 33 36 40 43 45 47 47
16 17 18 18 19 20 20 20 20 21 21 20 20 19 18 18 17 17 17 17 16 15 14 14 13 13 13 13 14 14 15 16 18 19 21 23 27 31 34 37 41 43 45
16 17 18 19 19 20 21 21 21 21 21 20 20 20 19 18 17 17 17 17 16 15 15 15 14 14 13 13 14 14 15 15 16 18 19 21 23 26 29 32 35 39 42
16 17 18 19 20 21 22 22 22 22 22 21 21 20 20 19 18 17 17 17 16 16 16 15 15 15 14 14 14 14 14 14 15 16 18 20 21 23 26 28 30 32 35
16 17 18 19 21 22 23 23 23 23 22 22 21 21 20 19 19 18 18 17 17 17 16 16 15 15 15 15 14 14 14 14 14 15 16 18 20 22 23 25 27 29 31
17 18 19 20 21 23 24 24 23 23 23 22 22 21 20 20 19 19 18 18 18 17 17 17 16 16 15 15 15 15 15 14 15 15 15 16 18 21 22 24 26 27 29
18 19 20 21 22 23 24 24 24 24 24 23 22 22 21 20 20 20 19 19 18 18 18 18 17 17 16 16 15 15 15 16 15 15 16 16 17 19 21 23 24 26 28
19 20 21 22 23 24 25 25 25 25 25 24 24 23 22 22 21 21 21 20 19 18 18 18 18 17 17 17 16 16 16 16 16 16 16 17 17 18 19 21 23 25 26
21 22 23 23 24 25 26 26 26 26 26 26 25 24 23 23 22 22 22 21 20 20 19 19 19 18 18 18 17 18 17 17 17 17 17 17 18 18 19 20 21 22 24
22 23 24 25 26 27 27 28 28 27 27 27 26 25 25 24 24 23 23 22 21 21 20 20 20 20 19 19 19 19 19 19 19 18 18 18 18 19 20 20 21 21 23
24 24 25 26 27 28 29 29 29 29 28 27 27 26 26 25 25 25 24 23 23 22 22 22 22 21 21 20 20 20 20 20 20 20 20 20 20 21 22 22 22 22 23
26 26 27 28 29 30 31 31 31 31 30 29 28 27 26 26 26 26 25 24 24 23 23 23 23 22 22 22 22 22 22 22 22 22 22 22 22 22 23 23 24 24 25
28 28 29 30 31 32 32 33 33 33 32 31 30 29 28 27 27 26 26 25 25 24 24 24 24 24 24 24 24 25 25 25 24 24 24 24 24 24 25 25 25 26 26
30 31 31 32 33 34 34 34 34 34 34 33 32 31 30 29 28 28 27 26 26 26 26 26 26 26 26 27 27 27 27 28 28 28 28 27 27 27 27 28 28 28 28
33 34 34 35 35 36 36 36 36 35 35 34 33 33 32 31 30 29 29 28 28 28 28 28 29 29 29 30 30 30 30 31 31 31 31 32 32 32 31 31 31 31 31
36 37 37 37 37 38 38 38 38 37 37 36 35 34 33 32 32 31 30 30 30 30 30 31 31 31 32 32 33 34 34 35 35 35 35 36 36 36 36 36 36 35 35
39 40 40 40 40 40 40 40 40 39 38 37 36 35 35 34 33 33 33 33 33 33 33 33 34 34 35 36 36 37 38 38 39 40 40 40 40 40 40 40 40 40 40
42 43 43 43 43 43 42 42 41 40 39 38 37 37 36 36 35 35 35 35 35 35 36 36 37 38 39 40 41 41 42 43 43 44 44 45 45 45 45 45 45 44 44
45 45 45 45 45 45 44 44 43 42 41 40 39 39 38 38 37 37 37 37 37 38 39 40 41 42 43 44 45 45 46 47 48 48 48 48 49 49 49 49 49 49 48
48 48 47 47 47 46 46 45 44 43 42 41 40 40 39 39 38 38 38 39 39 40 41 42 43 44 46 47 48 49 50 50 51 51 51 52 52 52 53 53 53 53 52
49 49 49 48 48 48 47 46 45 44 42 42 41 41 40 40 39 39 40 40 41 42 44 45 46 47 48 49 50 51 52 53 54 55 55 55 55 55 55 56 56 56 55